Location: LDNL
(36.4545°S, 141.6685°E)
Time: 12:00:04
(UTC+10:00)

Tiros 1 despin weight - Pass Details

Date: 13 August 2022
Orbit: 590 x 639 km, 48.2° (Epoch: 23 September)

Event Time Altitude Azimuth Distance (km) Brightness Sun altitude
Rises 04:49:07 0° 233° (SW) 2,958 - -30.6°
Reaches altitude 10° 04:51:43 10° 221° (SW) 2,051 - -30.0°
Maximum altitude 04:55:51 29° 160° (SSE) 1,185 - -29.2°
Exits shadow 04:56:09 29° 153° (SSE) 1,191 ? -29.2°
Drops below altitude 10° 04:59:59 10° 99° (E) 2,044 ? -28.4°
Sets 05:02:34 0° 88° (E) 2,948 ? -27.9°
